KAI-1 (RS26S)

Last updated on Sun Aug 18 2024 00:03:01 GMT+0000 (Coordinated Universal Time)

1 53378U 22096J 24228.06623961 .01972063 41844-2 15090-2 0 9994 2 53378 97.3908 151.6448 0008407 161.8615 198.2973 16.16088910113554
UTC large
Height (km)
Speed (km/s)
/
Latitude / Longitude
Inclination (degrees)
Orbital Period (minutes)
Azimuth
Elevation
Range (km)
Doppler Factor

Next 0 passes for location: London (51.5072 / 0.1276)

Sorry there are no passes over London.
KAI-1 (RS26S)